Date,TemperatureHighF,TemperatureAvgF,TemperatureLowF,DewpointHighF,DewpointAvgF,DewpointLowF,HumidityHigh,HumidityAvg,HumidityLow,PressureMaxIn,PressureMinIn,WindSpeedMaxMPH,WindSpeedAvgMPH,GustSpeedMaxMPH,PrecipitationSumIn
2013-1-1,28.0,26.4,24.0,26.0,22.5,21.0,91,85,78,0.00,40.00,6,3,9,0.00
2013-1-2,24.0,14.8,3.0,10.0,6.5,1.0,91,70,53,0.00,40.00,8,5,16,0.00
2013-1-3,30.0,23.2,14.0,25.0,16.2,5.0,85,74,62,0.00,40.00,12,8,21,0.00
2013-1-4,28.0,19.9,12.0,22.0,15.5,9.0,94,83,71,0.00,40.00,16,10,24,0.00
2013-1-5,35.0,27.8,20.0,31.0,23.0,18.0,93,83,60,0.00,40.00,14,7,21,0.00
2013-1-6,35.0,31.1,25.0,32.0,26.4,20.0,89,82,78,0.00,40.00,19,10,23,0.00
2013-1-7,35.0,26.5,17.0,24.0,21.4,16.0,96,82,62,0.00,40.00,15,8,22,0.00
2013-1-8,41.0,32.1,26.0,29.0,25.4,22.0,88,76,57,0.00,40.00,11,7,16,0.00
2013-1-9,46.0,39.5,31.0,34.0,28.9,19.0,80,66,46,0.00,40.00,14,8,21,0.00
2013-1-10,40.0,33.2,25.0,38.0,27.1,20.0,97,78,64,0.00,40.00,13,7,21,0.00
2013-1-11,54.0,49.1,39.0,52.0,46.5,38.0,97,90,78,0.00,40.00,16,10,24,0.00
2013-1-12,59.0,51.8,40.0,49.0,46.5,38.0,96,82,66,0.00,40.00,15,8,21,0.00
2013-1-13,40.0,32.8,19.0,39.0,31.4,14.0,98,94,82,0.00,40.00,15,9,23,0.00
2013-1-14,23.0,18.3,14.0,17.0,13.9,9.0,92,82,77,0.00,40.00,14,6,19,0.00
2013-1-15,29.0,21.8,13.0,21.0,17.0,12.0,93,82,64,0.00,40.00,7,2,10,0.00
2013-1-16,35.0,28.1,19.0,27.0,20.7,16.0,95,75,49,0.00,40.00,19,8,26,0.00
2013-1-17,34.0,29.4,21.0,28.0,20.8,12.0,93,71,52,0.00,40.00,20,9,25,0.00
2013-1-18,38.0,28.7,18.0,25.0,18.7,11.0,86,67,52,0.00,40.00,22,10,30,0.00
2013-1-19,48.0,41.7,37.0,35.0,30.3,25.0,74,63,55,0.00,40.00,24,15,37,0.00
2013-1-20,42.0,22.9,18.0,33.0,11.2,6.0,73,60,45,0.00,40.00,26,12,45,0.00
2013-1-21,18.0,12.2,6.0,7.0,2.5,-4.0,81,64,58,0.00,40.00,19,13,29,0.00
2013-1-22,13.0,7.2,2.0,-1.0,-3.1,-5.0,70,62,53,0.00,40.00,14,10,22,0.00
2013-1-23,20.0,14.6,9.0,15.0,5.1,-1.0,87,65,53,0.00,40.00,13,8,22,0.00
2013-1-24,18.0,11.0,4.0,16.0,8.1,2.0,93,88,76,0.00,40.00,16,5,23,0.00